Theta_e
353 352 354 353 352 352 353 355 357 358 358 356 355 356 357 356 355 356 355 356 358 357 358 358 358 357 356 357 358 358 358 356 356 357 356 358 357 356 355 354 354 355
355 354 354 354 353 353 354 355 356 357 358 358 356 355 357 358 356 355 354 356 358 357 358 358 356 355 355 357 358 357 357 355 355 357 357 357 357 357 356 354 355 356
357 356 356 355 355 356 357 357 357 358 357 358 357 355 356 358 357 355 353 356 358 358 358 358 356 354 356 358 358 356 356 354 355 357 357 357 357 358 358 356 354 354
358 358 357 356 358 358 358 358 357 358 357 357 357 355 355 356 356 355 354 356 358 358 359 359 359 357 356 359 359 356 356 355 357 358 357 358 358 357 358 358 354 352
358 359 357 357 358 358 357 357 357 357 356 356 356 356 355 356 357 356 356 358 358 358 359 359 360 359 357 358 358 355 354 355 358 358 356 356 356 355 357 357 355 353
358 358 358 357 358 356 356 357 357 356 356 356 356 356 356 356 357 357 356 358 358 358 360 359 359 360 359 358 357 355 354 356 359 358 356 355 355 357 358 358 357 355
357 358 357 357 357 356 356 356 356 356 356 357 356 356 356 356 355 356 356 357 357 357 359 360 359 359 359 359 359 357 356 358 360 358 355 355 356 357 359 359 357 356
358 358 357 357 357 356 355 355 356 356 356 356 356 355 356 355 353 355 356 357 357 357 358 358 358 358 359 359 359 359 358 358 358 356 355 355 356 357 358 359 358 357
358 358 357 357 356 355 355 354 354 355 355 356 356 356 355 355 354 355 356 357 357 357 356 357 358 357 357 358 358 358 359 359 358 357 356 357 356 356 358 359 358 357
357 358 357 356 356 356 355 354 353 354 355 355 355 355 355 355 355 355 357 356 356 357 356 356 356 357 356 357 358 359 360 360 360 360 358 356 356 357 358 358 358 357
356 356 356 356 356 356 355 354 354 354 355 355 354 354 354 355 355 355 356 357 356 356 357 356 356 356 357 358 358 359 359 359 360 361 359 357 357 358 359 358 358 358
354 354 356 356 355 355 355 354 353 353 353 354 354 354 354 354 354 355 356 356 356 356 356 356 357 358 358 359 359 358 358 358 358 360 359 358 357 358 358 358 357 356
352 352 353 354 354 353 352 352 352 352 352 353 354 354 354 353 353 354 355 355 356 356 357 356 357 358 359 359 359 358 358 357 357 358 357 357 357 357 357 357 357 355
352 353 352 352 353 352 351 351 350 350 350 350 352 354 354 353 353 354 355 355 355 356 357 357 357 358 358 359 359 359 359 358 357 357 357 356 356 356 356 356 356 354
352 353 352 352 352 352 352 351 350 350 350 350 351 353 354 354 353 353 353 353 354 356 357 357 357 357 358 358 358 358 358 358 357 357 356 356 356 355 355 354 354 353
352 352 352 352 352 352 352 352 351 350 350 351 352 352 353 352 352 352 352 351 352 352 354 355 355 356 356 356 357 358 357 357 357 356 356 356 356 355 355 354 353 353
354 352 352 352 353 352 352 352 352 351 351 352 353 353 352 352 351 351 351 350 350 350 350 351 351 352 353 354 354 355 356 356 356 356 356 356 355 354 352 352 351 350
357 356 355 354 355 354 354 354 354 353 352 353 354 354 354 353 352 352 350 349 349 348 349 350 350 351 352 352 350 351 354 356 355 355 354 354 353 351 349 349 349 349
357 357 357 358 359 358 356 355 355 356 355 355 355 355 355 353 352 351 350 349 349 349 349 349 350 351 351 351 350 349 351 355 355 353 353 353 351 348 347 349 350 350
355 356 357 358 358 358 357 357 357 358 357 357 357 356 356 355 352 351 351 350 350 351 351 351 351 351 350 350 349 349 348 350 352 353 352 351 349 348 348 349 350 350
353 355 355 355 355 354 355 355 355 356 357 357 357 356 356 355 354 353 352 351 351 352 352 352 351 351 350 349 348 348 347 346 348 352 353 351 350 350 348 348 349 349
349 351 350 350 351 352 352 351 350 351 354 355 356 356 355 355 354 353 352 351 351 352 351 350 349 349 349 349 348 347 347 348 350 352 352 352 352 351 350 349 348 347
343 344 345 347 349 351 350 350 350 350 352 353 354 354 354 354 354 354 353 351 351 351 351 350 349 349 348 349 349 349 348 349 351 352 353 354 354 353 351 350 350 349
340 341 342 343 346 347 347 348 349 349 350 351 351 352 351 351 352 353 351 350 350 351 352 351 350 349 349 350 350 350 350 351 351 353 355 356 356 355 353 352 352 351
339 339 339 339 340 341 342 344 346 346 347 348 348 348 348 348 349 349 348 347 348 349 350 350 349 348 348 350 350 350 351 351 352 354 356 356 356 355 354 353 352 352
337 337 337 337 337 337 338 339 342 344 345 346 346 346 346 346 346 347 347 346 346 346 346 345 345 345 346 348 349 350 351 352 352 353 354 355 355 355 354 353 352 352
Wind_Speed
19 20 17 17 19 19 18 18 17 17 16 16 17 16 14 13 13 14 14 13 13 12 11 12 10 9 9 9 9 10 9 8 7 6 5 5 3 3 4 4 4 3
20 20 18 17 18 18 17 17 17 18 17 16 16 16 15 14 14 15 14 14 14 13 12 12 11 10 10 9 8 9 8 7 7 6 6 5 5 4 4 5 5 5
21 21 20 18 18 18 17 17 16 16 16 16 15 15 15 14 13 14 14 15 15 13 12 11 11 10 11 10 9 8 7 6 6 7 6 6 6 5 5 5 5 7
22 22 21 19 19 18 17 16 17 16 16 16 15 14 14 15 14 13 14 15 15 14 13 11 10 11 11 11 10 9 8 7 6 6 6 6 7 6 5 5 5 6
23 22 21 20 19 18 18 17 17 16 16 16 15 14 14 15 15 15 15 15 14 14 14 12 11 11 11 11 11 9 9 8 7 7 7 7 7 6 5 6 6 6
24 22 22 20 19 19 19 19 18 17 16 16 15 14 15 15 15 16 16 16 15 14 14 13 13 13 12 11 11 9 9 8 7 8 8 7 7 6 5 6 7 7
25 23 22 21 20 19 19 19 18 17 17 16 16 16 16 16 15 16 17 17 16 15 15 14 14 14 14 13 13 11 10 9 9 9 8 8 7 7 6 6 7 8
24 23 23 22 20 19 19 19 18 18 18 17 16 16 16 16 16 16 17 17 16 16 16 16 16 14 15 15 14 13 12 12 12 11 9 8 8 8 7 7 8 8
24 23 23 22 20 19 19 19 19 18 18 18 17 16 16 16 16 17 17 17 16 16 16 17 17 15 15 16 15 14 14 13 12 11 10 9 9 9 8 8 9 9
24 23 23 22 21 20 18 18 18 18 19 18 17 17 17 17 17 17 17 17 16 16 16 17 16 16 16 16 15 15 14 12 12 12 11 10 10 10 10 10 10 10
25 24 23 23 21 20 19 19 18 18 19 19 16 17 19 19 18 18 17 18 17 16 17 16 15 15 17 17 16 15 14 13 13 13 13 11 10 10 10 11 11 11
25 24 24 23 23 22 20 19 19 19 20 20 18 17 19 19 19 19 18 18 19 18 17 17 16 15 15 16 16 15 14 13 13 14 14 13 12 11 10 11 12 12
24 23 23 22 22 22 21 20 20 20 20 21 20 19 19 18 18 19 20 18 18 19 18 17 17 16 16 15 15 15 14 14 14 14 14 14 14 13 13 13 14 13
22 20 19 18 16 18 19 19 18 17 17 18 20 21 20 18 17 18 20 19 17 19 20 19 17 17 17 17 15 15 14 13 13 14 15 14 13 13 13 13 13 13
21 18 16 14 12 12 14 15 15 13 11 12 16 20 21 19 17 14 15 15 14 14 17 19 19 18 18 17 16 16 15 13 13 14 15 14 12 11 11 11 11 11
22 19 16 13 12 11 11 12 13 12 9 7 10 16 17 17 15 12 10 11 11 11 12 13 14 14 15 17 17 17 16 16 14 12 11 11 10 10 11 11 11 11
20 20 19 15 15 14 11 11 12 13 12 9 8 10 12 13 13 12 11 12 13 14 12 12 12 11 12 15 16 17 18 18 16 14 12 10 10 10 10 10 11 10
14 15 18 17 15 16 14 12 12 12 13 12 9 8 8 10 11 11 11 12 12 13 12 11 12 12 12 13 14 15 17 19 19 17 14 12 10 9 9 10 10 11
7 8 13 14 13 15 15 14 13 11 11 11 9 8 8 8 7 7 8 10 10 11 11 11 12 12 12 12 13 14 16 18 19 17 15 13 11 10 9 7 7 8
5 5 8 9 10 11 12 12 10 7 7 9 8 8 8 6 3 3 6 8 8 8 10 12 13 13 12 12 14 15 15 16 19 17 13 11 11 10 9 6 4 5
3 2 4 5 6 7 7 8 5 2 2 5 7 7 6 3 2 2 5 8 7 7 8 11 13 13 13 12 12 14 14 15 18 18 12 7 7 8 9 7 6 5
1 0 1 2 4 4 4 5 4 4 4 5 5 5 4 3 3 4 5 8 8 7 7 9 10 10 11 10 10 12 14 13 14 16 13 8 6 7 8 8 8 7
3 2 1 3 4 4 3 1 3 7 8 7 6 4 3 4 6 8 7 6 4 4 5 7 8 8 8 9 9 11 13 12 11 13 12 10 8 7 8 8 8 8
11 7 3 2 3 4 4 3 3 5 5 5 6 5 3 4 7 8 6 2 2 4 6 8 9 9 9 8 9 10 11 10 10 10 10 8 7 7 8 7 7 7
14 12 8 6 5 4 1 3 4 4 3 3 5 5 4 4 6 7 6 3 3 6 7 7 7 8 8 8 9 10 10 10 9 8 7 7 6 7 7 6 6 7
12 11 10 9 8 7 6 3 2 3 4 4 5 4 2 3 5 6 6 5 6 7 7 6 4 4 5 6 8 9 9 9 9 8 7 7 7 7 7 7 7 6
Wind_Direction
196 195 193 189 188 191 191 193 194 194 195 197 198 200 201 203 197 200 207 203 202 204 199 204 210 204 202 198 189 194 202 199 198 200 195 193 192 208 233 228 212 232
197 196 196 193 190 191 196 198 198 198 199 201 204 202 203 206 202 205 208 199 201 211 208 211 218 210 202 200 203 208 209 207 203 199 204 214 207 211 240 231 207 218
198 196 197 196 192 193 199 199 197 201 201 200 206 206 205 207 204 206 206 196 199 210 211 214 217 209 201 202 211 216 213 211 205 203 219 230 218 218 247 258 230 224
198 197 197 196 195 196 199 198 197 203 205 201 205 207 203 204 205 203 199 195 198 205 210 213 211 207 205 207 214 221 219 213 206 214 227 226 226 233 246 258 246 229
197 198 198 197 198 198 198 200 200 202 206 205 205 205 202 203 204 201 197 197 198 202 209 209 205 209 213 211 216 222 219 215 215 224 230 227 229 232 241 258 252 230
198 199 199 199 201 201 199 202 202 199 203 206 203 201 201 201 202 200 200 203 202 202 208 207 204 210 214 215 222 226 221 221 227 234 237 236 230 224 240 267 257 238
199 200 201 201 205 206 201 201 203 202 203 206 205 204 204 206 206 204 204 207 206 204 208 213 210 208 211 217 221 222 220 222 230 236 237 235 231 225 234 260 255 239
198 201 201 203 208 209 207 206 207 208 207 207 206 206 207 211 210 205 204 207 209 207 209 216 215 208 210 217 219 218 218 222 230 236 235 234 235 227 222 242 251 242
197 200 201 204 209 212 213 211 210 212 212 209 206 206 211 213 207 201 204 209 211 212 214 217 217 211 209 215 218 220 223 226 229 235 236 233 233 229 226 235 244 242
195 198 201 203 208 211 212 211 211 213 214 214 211 210 211 211 206 203 209 213 211 212 216 216 215 213 210 212 219 223 226 228 227 231 238 237 234 236 238 238 239 242
195 197 199 201 205 211 213 212 213 214 213 212 210 209 211 211 211 210 213 215 212 210 213 214 212 214 211 211 219 226 228 229 227 229 235 238 237 236 238 240 241 246
196 198 199 200 203 208 213 213 215 217 215 209 205 209 215 213 212 213 212 213 213 210 211 213 213 214 213 211 215 224 230 233 233 233 235 237 238 235 234 237 239 242
196 199 202 205 205 207 213 216 217 220 219 213 206 207 214 214 212 211 210 211 213 211 212 215 214 214 215 216 216 221 229 234 234 234 237 240 242 240 239 242 243 243
192 193 197 206 208 208 215 221 222 221 222 222 214 206 209 213 210 208 210 212 214 213 212 214 218 219 217 217 219 222 228 234 235 234 236 238 238 236 240 247 250 252
188 187 189 198 206 210 217 224 227 226 228 232 219 207 207 212 212 208 208 212 217 220 217 215 217 219 218 218 221 224 225 229 236 239 236 234 235 236 241 246 248 257
191 193 196 202 209 216 221 218 218 222 224 219 207 205 207 211 217 216 210 215 225 236 247 246 236 227 223 221 222 224 224 224 232 238 231 228 235 242 248 253 252 260
191 195 201 209 215 222 227 219 212 214 215 204 191 199 205 208 216 221 220 223 222 222 242 265 260 245 229 221 223 227 225 222 222 224 224 229 239 242 247 255 256 257
191 199 206 212 220 227 231 227 219 215 216 214 204 200 205 209 217 223 225 228 227 225 234 245 245 249 244 229 228 232 226 221 219 221 225 228 234 243 252 260 265 265
197 199 211 215 220 228 231 230 228 225 224 225 223 221 222 219 217 217 215 219 225 229 229 225 231 248 250 238 236 235 227 223 223 223 223 220 225 245 262 266 266 264
237 205 212 217 219 225 229 226 222 226 234 233 234 239 238 227 208 192 193 202 215 225 224 225 235 247 251 244 237 234 236 236 231 226 222 222 224 234 245 250 253 261
241 215 211 234 245 241 239 232 210 176 285 258 243 247 251 233 191 186 196 201 208 218 222 226 234 240 244 244 238 239 251 253 239 227 221 222 217 217 228 239 250 266
235 197 157 245 275 270 268 267 232 213 263 273 246 246 252 220 191 193 197 201 203 206 215 222 228 232 237 240 241 247 254 249 230 219 217 222 225 229 236 241 248 259
38 33 124 216 242 238 230 236 178 195 224 237 226 225 233 225 226 221 211 203 192 192 211 222 225 228 232 231 230 235 238 230 213 208 212 217 221 229 240 247 253 258
78 75 82 180 211 228 233 222 154 162 188 203 210 220 224 227 234 231 224 207 155 189 219 228 229 230 233 230 225 223 222 217 207 204 209 215 219 228 240 249 253 256
83 81 73 72 78 82 152 235 241 247 255 251 242 243 249 260 262 261 261 256 185 201 220 226 227 234 240 239 235 230 224 221 218 215 216 217 222 232 240 240 240 241
82 84 73 60 56 57 64 95 191 224 251 266 268 265 251 241 240 238 238 232 214 213 222 229 229 234 241 243 243 240 231 222 218 219 221 219 215 216 216 214 218 224